Location: Central Coast
(33.3208°S, 151.2336°E)
Time: 18:12:57
(UTC+10:00)

Vanguard 1 - Visible Passes

Search period start: 23 June 2018 00:00
Search period end: 03 July 2018 00:00
Orbit: 650 x 3833 km, 34.3° (Epoch: 22 June)

Date Brightness Start Highest point End Pass type
(mag) Time Alt. Az. Time Alt. Az. Time Alt. Az.
23 Jun 11.7 17:08:38 10° WNW 17:25:19 71° NNE 17:34:03 10° E visible
23 Jun 10.5 19:36:00 10° W 19:47:04 81° SW 19:47:04 81° SW visible
24 Jun 11.5 17:30:11 10° WNW 17:46:32 80° NNE 17:54:14 14° E visible
24 Jun 10.9 19:57:42 10° W 20:06:57 62° WSW 20:06:57 62° WSW visible
25 Jun 11.3 17:51:55 10° WNW 18:07:45 88° N 18:14:07 21° E visible
25 Jun 11.4 20:19:21 10° W 20:26:50 46° W 20:26:50 46° W visible
26 Jun 11.2 18:13:47 10° W 18:28:59 87° S 18:34:01 29° E visible
26 Jun 11.9 20:40:56 10° W 20:46:44 34° W 20:46:44 34° W visible
27 Jun 11.0 18:35:40 10° W 18:50:14 85° S 18:53:55 40° E visible
27 Jun 12.3 21:02:27 10° WSW 21:06:39 25° W 21:06:39 25° W visible
28 Jun 10.7 18:57:33 10° W 19:11:27 86° S 19:13:50 54° E visible
28 Jun 12.7 21:24:01 10° W 21:26:34 18° W 21:26:34 18° W visible
29 Jun 10.6 19:19:22 10° W 19:32:37 88° NNW 19:33:47 71° ENE visible
29 Jun 13.0 21:45:40 10° W 21:46:31 12° W 21:46:31 12° W visible
30 Jun 11.8 17:12:37 10° W 17:31:06 87° S 17:40:44 10° E visible
30 Jun 10.7 19:41:07 10° WSW 19:53:42 79° NNW 19:53:45 79° NNW visible
01 Jul 11.6 17:34:37 10° W 17:52:29 86° S 18:01:01 14° E visible
01 Jul 11.0 20:02:50 10° WSW 20:13:45 62° NW 20:13:45 62° NW visible
02 Jul 11.5 17:56:37 10° W 18:13:50 88° S 18:21:03 19° E visible
02 Jul 11.5 20:24:32 10° WSW 20:33:46 46° WNW 20:33:46 46° WNW visible
